Boundary Cnty AP, Bonners Fer, ID

10:12 PM PDT on June 24, 2017 (GMT -0700)
Boundary Cnty AP, Bonners Fer

Weather History for K65S - October, 2013

Change the Weather History Date:

Sunday, October 6, 2013

  Actual Average (KSZT) Record (KSZT)
Temperature  
Mean Temperature 48 °F -  
Max Temperature 62 °F 61 °F 79 °F (1942)
Min Temperature 35 °F 34 °F 20 °F (1974)
Degree Days  
Heating Degree Days 16    
Moisture  
Dew Point 37 °F    
Average Humidity 71    
Maximum Humidity 93    
Minimum Humidity 37    
Precipitation  
Precipitation 0.00 in - - ()
Sea Level Pressure  
Sea Level Pressure 30.14 in    
Wind  
Wind Speed 1 mph (SE)    
Max Wind Speed 6 mph    
Max Gust Speed -    
Visibility 10 miles    
Events      
Averages and records for this station are not official NWS values.
T = Trace of Precipitation, MM = Missing Value Source: NWS Daily Summary

Daily Weather History Graph

Daily Weather History Graph

Search for Another Location

Airport or City:

Trip Planner

Search our weather history database for the weather conditions in past years. The results will help you decide how hot, cold, wet, or windy it might be!

Date:

Astronomy

Oct. 06, 2013 Rise Set
Actual Time 6:52 AM PDT 6:13 PM PDT
Civil Twilight 6:21 AM PDT 6:44 PM PDT
Nautical Twilight 5:44 AM PDT 7:20 PM PDT
Astronomical Twilight 5:07 AM PDT 7:57 PM PDT
Moon 8:53 AM PDT (10/6) 7:02 PM PDT (10/6)
Length of Visible Light 12h 23m
Length of Day
11h 20m
Waxing Crescent, 4% of the Moon is Illuminated
Oct 6
Waxing Crescent
Oct 11
First Quarter
Oct 18
Full
Oct 26
Last Quarter
Nov 3
New

Hourly Weather History & Observations

Time (PDT) Temp. Windchill Dew Point Humidity Pressure Visibility Wind Dir Wind Speed Gust Speed Precip Events Conditions
12:10 AM 39.2 °F 37.0 °F 35.6 °F 87% 30.30 in 10.0 mi NE 3.5 mph - N/A   Clear
12:30 AM 39.2 °F - 35.6 °F 87% 30.30 in 10.0 mi Calm Calm - N/A   Clear
12:50 AM 39.2 °F - 35.6 °F 87% 30.30 in 10.0 mi Calm Calm - N/A   Clear
1:10 AM 39.2 °F - 35.6 °F 87% 30.30 in 10.0 mi Calm Calm - N/A   Clear
1:30 AM 39.2 °F - 35.6 °F 87% 30.30 in 10.0 mi Calm Calm - N/A   Clear
1:50 AM 37.4 °F - 35.6 °F 93% 30.30 in 10.0 mi Calm Calm - N/A   Clear
2:10 AM 37.4 °F - 35.6 °F 93% 30.30 in 10.0 mi Calm Calm - N/A   Clear
2:30 AM 37.4 °F - 35.6 °F 93% 30.29 in 10.0 mi Calm Calm - N/A   Clear
2:50 AM 35.6 °F - 33.8 °F 93% 30.28 in 10.0 mi Calm Calm - N/A   Clear
3:10 AM 39.2 °F 37.0 °F 35.6 °F 87% 30.28 in 10.0 mi ESE 3.5 mph - N/A   Clear
3:30 AM 39.2 °F - 35.6 °F 87% 30.27 in 10.0 mi Calm Calm - N/A   Clear
3:50 AM 37.4 °F - 35.6 °F 93% 30.27 in 10.0 mi Calm Calm - N/A   Clear
4:10 AM 39.2 °F - 33.8 °F 81% 30.27 in 10.0 mi Calm Calm - N/A   Clear
4:30 AM 39.2 °F 37.0 °F 33.8 °F 81% 30.26 in 10.0 mi ESE 3.5 mph - N/A   Clear
4:50 AM 39.2 °F - 33.8 °F 81% 30.25 in 10.0 mi Calm Calm - N/A   Clear
5:10 AM 39.2 °F - 33.8 °F 81% 30.25 in 10.0 mi Calm Calm - N/A   Clear
5:30 AM 37.4 °F 34.9 °F 33.8 °F 87% 30.25 in 10.0 mi ENE 3.5 mph - N/A   Clear
5:50 AM 39.2 °F - 33.8 °F 81% 30.25 in 10.0 mi Calm Calm - N/A   Clear
6:10 AM 37.4 °F - 33.8 °F 87% 30.25 in 10.0 mi Calm Calm - N/A   Clear
6:30 AM 35.6 °F - 33.8 °F 93% 30.25 in 10.0 mi Calm Calm - N/A   Clear
6:50 AM 35.6 °F 32.8 °F 32.0 °F 87% 30.25 in 10.0 mi ENE 3.5 mph - N/A   Clear
7:10 AM 37.4 °F 34.9 °F 32.0 °F 81% 30.25 in 10.0 mi ENE 3.5 mph - N/A   Clear
7:30 AM 37.4 °F 34.9 °F 33.8 °F 87% 30.24 in 10.0 mi SE 3.5 mph - N/A   Clear
7:50 AM 35.6 °F - 33.8 °F 93% 30.24 in 10.0 mi Calm Calm - N/A   Clear
8:10 AM 37.4 °F - 35.6 °F 93% 30.24 in 10.0 mi Calm Calm - N/A   Clear
8:30 AM 41.0 °F 39.0 °F 35.6 °F 81% 30.24 in 10.0 mi East 3.5 mph - N/A   Clear
8:50 AM 41.0 °F 38.0 °F 35.6 °F 81% 30.24 in 10.0 mi East 4.6 mph - N/A   Clear
9:10 AM 41.0 °F 39.0 °F 35.6 °F 81% 30.24 in 10.0 mi SE 3.5 mph - N/A   Clear
9:30 AM 44.6 °F 43.1 °F 35.6 °F 71% 30.24 in 10.0 mi South 3.5 mph - N/A   Clear
9:50 AM 44.6 °F - 37.4 °F 76% 30.23 in 10.0 mi Calm Calm - N/A   Clear
10:10 AM 46.4 °F 45.2 °F 37.4 °F 71% 30.23 in 10.0 mi ENE 3.5 mph - N/A   Clear
10:30 AM 48.2 °F - 35.6 °F 62% 30.22 in 10.0 mi South 5.8 mph - N/A   Clear
10:50 AM 48.2 °F - 37.4 °F 66% 30.21 in 10.0 mi Calm Calm - N/A   Clear
11:10 AM 50.0 °F - 37.4 °F 62% 30.20 in 10.0 mi South 4.6 mph - N/A   Clear
11:30 AM 50.0 °F - 37.4 °F 62% 30.19 in 10.0 mi SSW 3.5 mph - N/A   Clear
11:50 AM 51.8 °F - 37.4 °F 58% 30.19 in 10.0 mi South 4.6 mph - N/A   Clear
12:10 PM 55.4 °F - 37.4 °F 51% 30.18 in 10.0 mi SSW 3.5 mph - N/A   Clear
12:30 PM 55.4 °F - 37.4 °F 51% 30.16 in 10.0 mi SSW 4.6 mph - N/A   Clear
12:50 PM 55.4 °F - 35.6 °F 47% 30.15 in 10.0 mi Calm Calm - N/A   Clear
1:10 PM 57.2 °F - 35.6 °F 44% 30.14 in 10.0 mi Calm Calm - N/A   Clear
1:30 PM 57.2 °F - 35.6 °F 44% 30.12 in 10.0 mi Calm Calm - N/A   Clear
1:50 PM 59.0 °F - 37.4 °F 45% 30.11 in 10.0 mi Calm Calm - N/A   Clear
2:10 PM 59.0 °F - 35.6 °F 42% 30.10 in 10.0 mi Calm Calm - N/A   Clear
2:30 PM 62.6 °F - 35.6 °F 37% 30.09 in 10.0 mi SSW 3.5 mph - N/A   Clear
2:50 PM 62.6 °F - 37.4 °F 39% 30.09 in 10.0 mi SSW 4.6 mph - N/A   Clear
3:10 PM 62.6 °F - 35.6 °F 37% 30.07 in 10.0 mi South 3.5 mph - N/A   Clear
3:30 PM 60.8 °F - 35.6 °F 39% 30.07 in 10.0 mi Calm Calm - N/A   Clear
3:50 PM 60.8 °F - 37.4 °F 42% 30.06 in 10.0 mi Calm Calm - N/A   Clear
4:10 PM 60.8 °F - 39.2 °F 45% 30.06 in 10.0 mi Calm Calm - N/A   Clear
4:30 PM 60.8 °F - 41.0 °F 48% 30.05 in 10.0 mi Calm Calm - N/A   Clear
4:50 PM 62.6 °F - 39.2 °F 42% 30.04 in 10.0 mi Calm Calm - N/A   Clear
5:10 PM 62.6 °F - 39.2 °F 42% 30.04 in 10.0 mi Calm Calm - N/A   Clear
5:30 PM 60.8 °F - 39.2 °F 45% 30.03 in 10.0 mi Calm Calm - N/A   Clear
5:50 PM 59.0 °F - 41.0 °F 51% 30.02 in 10.0 mi Calm Calm - N/A   Clear
6:10 PM 57.2 °F - 39.2 °F 51% 30.01 in 10.0 mi Calm Calm - N/A   Clear
6:30 PM 55.4 °F - 39.2 °F 54% 30.00 in 10.0 mi Calm Calm - N/A   Clear
6:50 PM 51.8 °F - 39.2 °F 62% 30.00 in 10.0 mi Calm Calm - N/A   Clear
7:10 PM 51.8 °F - 39.2 °F 62% 30.00 in 10.0 mi Calm Calm - N/A   Clear
7:30 PM 50.0 °F - 39.2 °F 66% 29.99 in 10.0 mi Calm Calm - N/A   Clear
7:50 PM 50.0 °F - 41.0 °F 71% 29.98 in 10.0 mi Calm Calm - N/A   Clear
8:10 PM 48.2 °F - 41.0 °F 76% 29.98 in 10.0 mi Calm Calm - N/A   Clear
8:30 PM 46.4 °F - 41.0 °F 81% 29.98 in 10.0 mi Calm Calm - N/A   Clear
8:50 PM 44.6 °F - 41.0 °F 87% 29.98 in 10.0 mi Calm Calm - N/A   Clear
9:10 PM 44.6 °F 43.1 °F 39.2 °F 81% 29.98 in 10.0 mi NNE 3.5 mph - N/A   Mostly Cloudy
9:30 PM 41.0 °F - 39.2 °F 93% 29.98 in 10.0 mi Calm Calm - N/A   Scattered Clouds
9:50 PM 41.0 °F - 39.2 °F 93% 29.97 in 10.0 mi Calm Calm - N/A   Clear
10:10 PM 39.2 °F - 37.4 °F 93% 29.97 in 10.0 mi Calm Calm - N/A   Clear
10:30 PM 41.0 °F - 37.4 °F 87% 29.97 in 10.0 mi Calm Calm - N/A   Partly Cloudy
10:50 PM 41.0 °F 39.0 °F 37.4 °F 87% 29.96 in 10.0 mi ENE 3.5 mph - N/A   Partly Cloudy
11:10 PM 44.6 °F 41.4 °F 37.4 °F 76% 29.96 in 10.0 mi East 5.8 mph - N/A   Partly Cloudy
11:30 PM 46.4 °F - 37.4 °F 71% 29.96 in 10.0 mi Calm Calm - N/A   Scattered Clouds
11:50 PM 42.8 °F - 37.4 °F 81% 29.96 in 10.0 mi Calm Calm - N/A   Scattered Clouds